Regional Weather Roundup
Issued by NWS Green Bay, WI

Home | Current Version | Previous Version | Text Only | Print | Product List | Glossary On
Versions: 1 2 3 4 5 6 7 8 9 10 11 12 13 14 15 16 17 18 19 20 21 22 23 24 25 26 27 28 29 30 31 32 33 34 35 36 37 38 39 40 41 42 43 44 45 46 47 48 49 50
000
ASUS43 KGRB 231410
RWRGRB

NORTH-CENTRAL AND NORTHEAST WISCONSIN REGIONAL WEATHER ROUNDUP
NATIONAL WEATHER SERVICE GREEN BAY WI
900 AM CDT WED JUL 23 2014

WIZ005-009-010>012-018-019-231500-
NORTH CENTRAL WISCONSIN

CITY           SKY/WX    TMP DP  RH WIND       PRES   REMARKS
IRONWOOD       NOT AVBL
MANITOWISH WTR CLOUDY    59  55  85 CALM      30.25S
ARBOR VITAE    CLOUDY    62  58  88 CALM      30.25S
EAGLE RIVER    MOSUNNY   58  53  84 CALM      30.25S
LAND O LAKES   PTSUNNY   60  50  68 CALM      30.26R
RHINELANDER    MOSUNNY   61  51  70 E3        30.26R
PHILLIPS       CLOUDY    63  56  78 CALM      30.24R
ANTIGO         SUNNY     62  53  71 N8        30.25R
TOMAHAWK       MOSUNNY   59  58  96 CALM      30.26R
MERRILL        SUNNY     63  56  79 CALM      30.25R
$$

WIZ013-073-231500-
NORTHEAST WISCONSIN

CITY           SKY/WX    TMP DP  RH WIND       PRES   REMARKS
IRON MOUNTAIN  SUNNY     62  48  60 N12       30.22R
MARINETTE      SUNNY     63  50  63 NE10      30.20S
OCONTO         SUNNY     64  51  62 NE10      30.20S
$$

WIZ017-030-035>037-045-231500-
CENTRAL WISCONSIN

CITY           SKY/WX    TMP DP  RH WIND       PRES   REMARKS
MEDFORD        SUNNY     63  56  77 CALM      30.25S
WAUSAU         SUNNY     66  54  65 E6        30.23R
MOSINEE        SUNNY     63  57  82 NE6       30.25R
MARSHFIELD     SUNNY     67  56  67 E7        30.24S
WISC RAPIDS    SUNNY     68  55  63 VRB6      30.25R
STEVENS POINT  SUNNY     62  54  73 CALM      30.25R
WAUPACA        SUNNY     68  56  64 NE6       30.23S
SHAWANO        SUNNY     66  53  61 N6        30.22S
CLINTONVILLE   SUNNY     64  52  63 N6        30.22S
$$

WIZ038-039-048-051-231500-
FOX VALLEY

CITY           SKY/WX    TMP DP  RH WIND       PRES   REMARKS
NWS GREEN BAY  SUNNY     67  53  61 N10       30.20F
APPLETON       MOSUNNY   64  54  68 N7        30.22R
OSHKOSH        SUNNY     66  56  70 N13       30.21R
FOND DU LAC    PTSUNNY   67  56  67 N13       30.21R
$$

WIZ022-050-052-231500-
EAST CENTRAL WISCONSIN

CITY           SKY/WX    TMP DP  RH WIND       PRES   REMARKS
STURGEON BAY   MOSUNNY   63  52  67 N17G23    30.20S
MANITOWOC      SUNNY     66  54  65 N10       30.19R
SHEBOYGAN      SUNNY     67  55  65 N9        30.18R
$$

LMZ563-521-522-541>543-231500-
LAKESHORE

STATION/POSITION TIME  TEMP    WIND        PRES    VSBY  WAVE
                       AIR SEA DIR/SP/G                  HT/PER
                 (UTC) (F)     (DEG/KT/KT) (MB)    (MI)  (FT/S)
SHEBOYGAN LKSHOR 1400   59      10/ 13/ 15 1022.2R
KEWAUNEE LKSHORE 1400   64     360/  9/ 13 1022.7R
NORTHPORT PIER   1400   59     360/ 15/ 18 1022.4R
N MID LAKE BUOY  1400   54 54  340/ 12/ 12 1021.4R         2/ 4
STURGEON BAY CG  1300   62 63  360/  9     1015.8      6
CHAMBERS ISLAND  1400   61     340/ 13/ 15 1022.7S
MENOMINEE LKSHOR 1400   61     350/ 10/ 11 1023.4R
$$


USA.gov is the U.S. government's official web portal to all federal, state and local government web resources and services.